Location: Szczecin
(53.4285°N, 14.5528°E)
Time: 13:01:19
(UTC+01:00)

ISS - Visible Passes

Search period start: 24 March 2019 00:00
Search period end: 03 April 2019 01:00
Orbit: 408 x 411 km, 51.6° (Epoch: 24 March)

Date Brightness Start Highest point End Pass type
(mag) Time Alt. Az. Time Alt. Az. Time Alt. Az.
24 Mar -2.6 19:33:08 10° SSW 19:35:55 25° SSE 19:37:09 20° ESE visible
24 Mar -1.5 21:08:54 10° WSW 21:09:56 18° WSW 21:09:56 18° WSW visible
25 Mar -3.6 20:18:20 10° WSW 20:21:34 49° SSE 20:21:38 49° SSE visible
26 Mar -3.2 19:27:51 10° SW 19:30:59 39° SSE 19:33:13 16° E visible
26 Mar -2.3 21:04:04 10° W 21:05:59 31° WSW 21:05:59 31° WSW visible
27 Mar -3.8 20:13:26 10° WSW 20:16:43 62° S 20:17:27 46° ESE visible
27 Mar -0.8 21:49:55 10° W 21:50:13 12° W 21:50:13 12° W visible
28 Mar -3.6 19:22:50 10° WSW 19:26:04 55° SSE 19:28:51 13° E visible
28 Mar -2.8 20:59:14 10° W 21:01:37 41° WSW 21:01:37 41° WSW visible
29 Mar -3.8 20:08:33 10° W 20:11:50 64° S 20:12:58 36° ESE visible
29 Mar -1.0 21:45:08 10° W 21:45:43 14° W 21:45:43 14° W visible
30 Mar -3.7 19:17:53 10° W 19:21:10 64° S 19:24:16 11° E visible
30 Mar -2.9 20:54:23 10° W 20:57:01 40° SW 20:57:01 40° SW visible
31 Mar -3.5 21:03:39 10° W 21:06:55 54° SSW 21:08:18 29° SE visible
31 Mar -1.0 22:40:28 10° W 22:41:03 13° WSW 22:41:03 13° WSW visible
01 Apr -3.6 20:12:57 10° W 20:16:13 62° S 20:19:29 10° ESE visible
01 Apr -2.5 21:49:33 10° W 21:52:20 29° SSW 21:52:20 29° SSW visible
02 Apr -3.0 20:58:45 10° W 21:01:52 39° SSW 21:03:36 21° SE visible
02 Apr -0.8 22:36:20 10° WSW 22:36:21 10° WSW 22:36:21 10° WSW visible
